Regional Weather Roundup
Issued by NWS Mobile, AL

Home | Current Version | Previous Version | Text Only | Print | Product List | Glossary On
Versions: 1 2 3 4 5 6 7 8 9 10 11 12 13 14 15 16 17 18 19 20 21 22 23 24 25 26 27 28 29 30 31 32 33 34 35 36 37 38 39 40 41 42 43 44 45 46 47 48 49 50
000
ASUS44 KMOB 161810
RWRMOB
REGIONAL WEATHER ROUNDUP
NATIONAL WEATHER SERVICE MOBILE AL
100 PM CDT TUE SEP 16 2014

NOTE: "FAIR" INDICATES FEW OR NO CLOUDS BELOW 12,000 FEET WITH NO
      SIGNIFICANT WEATHER AND/OR OBSTRUCTIONS TO VISIBILITY.

  * THESE STATIONS ARE PART OF THE UNIVERSITY OF SOUTH ALABAMA
    MESONET AND ARE NOT UNDER NWS OR FAA QUALITY CONTROL.

ALZ061>064-161900-
COASTAL ALABAMA

CITY           SKY/WX    TMP DP  RH WIND       PRES   REMARKS
MOBILE REG APT PTSUNNY   85  75  72 W3        30.04F
6HR MIN TEMP:  73; 6HR MAX TEMP:  89; 6HR PCP:  0.01;

BROOKLEY FIELD PTSUNNY   88  75  65 E6        30.03F HX  97
6HR MIN TEMP:  75; 6HR MAX TEMP:  89;

USA CAMPUS*      N/A     88  75  66 CALM      30.01F HX  97
DOG RIVER*       N/A     88  75  66 NE5       30.03F HX  97


CITY           SKY/WX    TMP DP  RH WIND       PRES   REMARKS
MOUNT VERNON*    N/A     86  73  66 N2        30.02F
SARALAND*      NOT AVBL
BAY MINETTE*   NOT AVBL
LOXLEY*          N/A    N/A N/A N/A CALM      30.01F
ROBERTSDALE*     N/A     84  68  58 CALM      30.02F
FAIRHOPE*        N/A     86  77  74 W6        30.02F HX  97
ELBERTA*         N/A     84  72  65 S6        30.02F
FOLEY*         NOT AVBL
GRAND BAY*       N/A     90  73  58 NE6       30.01F HX  98
DAUPHIN ISLND* NOT AVBL
BON SCOUR NWR* NOT AVBL
GULF SHORES    PTSUNNY   83  76  79 S8        30.03F

$$

ALZ051>060-161900-
INTERIOR SOUTHWEST AND SOUTH CENTRAL ALABAMA

CITY           SKY/WX    TMP DP  RH WIND       PRES   REMARKS
GREENVILLE     MOSUNNY   88  73  61 NE6       30.04R HX  95
6HR MIN TEMP:  74; 6HR MAX TEMP:  89;

EVERGREEN      MOSUNNY   82  74  76 S8        30.04F THUNDER
6HR MIN TEMP:  74; 6HR MAX TEMP:  92; 6HR PCP:  0.07;

CASTLEBERRY*   NOT AVBL
ATMORE*          N/A     90  72  55 VRB8      30.04F HX  96
DIXIE*         NOT AVBL
ANDALUSIA/OPP  PTSUNNY   92  72  51 VRB3      30.02F HX  99
6HR MIN TEMP:  78; 6HR MAX TEMP:  93;

ANDALUSIA*     NOT AVBL
FLORALA APT    MOSUNNY   89  74  60 N7        30.03F HX  98
6HR MIN TEMP:  74; 6HR MAX TEMP:  90;

FLORALA*         N/A     86  72  62 N5        29.98F

$$

FLZ001>006-161900-
WESTERN FLORIDA PANHANDLE

CITY           SKY/WX    TMP DP  RH WIND       PRES   REMARKS
PENSACOLA      TSTM      79  72  79 S14       30.02F
6HR MIN TEMP:  74; 6HR MAX TEMP:  85; 6HR PCP: TRACE;

NAS PENSACOLA  CLOUDY    85  75  72 S14       30.01F THUNDER
6HR MIN TEMP:  75; 6HR MAX TEMP:  88;

MILTON         PTSUNNY   86  75  69 NW6       30.01F THUNDER HX  95
6HR MIN TEMP:  73; 6HR MAX TEMP:  87; 6HR PCP:  0.02;

WHTNG S FIELD  PTSUNNY   84  77  79 SE7       30.02F
6HR MIN TEMP:  75; 6HR MAX TEMP:  90; 6HR PCP:  0.05;



CITY           SKY/WX    TMP DP  RH WIND       PRES   REMARKS
WALNUT HILL*   NOT AVBL
JAY*           NOT AVBL
DUKE FIELD     TSTM      83  80  90 S10       30.00F HX  95
CRESTVIEW      TSTM      77  77 100 CALM      30.03F VSB 1
6HR MIN TEMP:  72; 6HR MAX TEMP:  91; 6HR PCP:  0.23;

VALPARAISO     TSTM      82  76  81 SE13      30.02F
6HR MIN TEMP:  77; 6HR MAX TEMP:  87; 6HR PCP:  0.01;

DESTIN         CLOUDY    83  75  77 S13G25    30.02F
6HR MIN TEMP:  79; 6HR MAX TEMP:  85;


$$

MSZ076-079-161900-
INTERIOR SOUTHEAST MISSISSIPPI

CITY           SKY/WX    TMP DP  RH WIND       PRES   REMARKS
LEAKESVILLE*     N/A     97  72  44 CALM        N/A  HX 105
AGRICOLA*      NOT AVBL

$$

MARINE OBSERVATIONS

STATION/POSITION TIME  TEMP    WIND        PRES    WAVE
                       AIR SEA DIR/SP/G            HT/PER
                 (UTC) (F)     (DEG/KT/KT) (MB)    (FT/S)
PASCAGOULA       1800   83     150/ 11/ 13 1017.0S
PETIT BOIS ISLND 1800   82      20/  9/ 12 1017.6F
GRAND BAY        1700   84     160/  7     1019.0S
KATRINA CUT      1700   87      60/  2     1018.3F
CEDAR POINT      1700   82      50/  7     1018.0R
E DAUPHIN ISLAND 1659   83      10/  7/  8 1017.4F
MIDDLE BAY LIGHT 1700   85     340/  8     1016.9F
USCG MOBILE BAY  1800   86 87  150/  4/  6 1015.7F
STATE DOCKS      1800   91 87              1016.5F
MEAHER PARK      1700   87     290/  3     1015.9F
WEEKS BAY        1700   88                   N/A
FORT MORGAN      1600   82      20/  8/  8 1017.8F
12 S ORANGE BCH  1800   82 86  190/  6/  8 1017.5F   2/ 7
PENSACOLA BAY    1800   85 86  150/  6/  9 1017.1F
64 S DAUPHIN ISL 1727   74 85   30/ 12/ 14 1018.7F   3/ 5
67 S FORT MORGAN 1600   80     VRB 10      1018.6

$$

SELECTED LOCATIONS ACROSS THE REGION

CITY           SKY/WX    TMP DP  RH WIND       PRES   REMARKS
NEW ORLEANS    PTSUNNY   85  75  72 S10       30.05S
GULFPORT       PTSUNNY   87  74  64 S8        30.03F THUNDER HX  95
PASCAGOULA AP  PTSUNNY   88  74  63 VRB3      30.03F HX  96
PASCAGOULA*      N/A     82  75  78 CALM      30.03F
HATTIESBURG    PTSUNNY   89  72  56 MISG      30.05F HX  96
LAUREL         PTSUNNY   88  72  58 N10       30.07F
MERIDIAN       PTSUNNY   88  66  48 NE5       30.06F
JACKSON        PTSUNNY   87  65  47 N7        30.08S
MONTGOMERY     PTSUNNY   90  71  53 N7        30.04F HX  96
TROY           MOSUNNY   91  72  53 N10       30.03F HX  98
KINSTON*       NOT AVBL
GENEVA*          N/A     88  70  55 N5        30.03F
ASHFORD*       NOT AVBL
DOTHAN         MOSUNNY   86  73  65 VRB7      30.06F
PANAMA CITY    LGT RAIN  81  75  82 S13       30.02F

$$



USA.gov is the U.S. government's official web portal to all federal, state and local government web resources and services.